Starlink 34517

operational
NORAD ID: 64595 Int'l Des: 2025-137 Owner: SPXS Country: US Constellation: starlink
LEOCIRCULAR

关于 Starlink 34517

正在加载描述...

实时位置

正在加载3D地球...

即将过境

高度历史

Altitude vs Time

uPlot chart will show altitude changes over time

两行轨道根数

1 64595U 25137B 25342.16230424 .00073929 00000-0 18371-2 0 9997
2 64595 53.1544 42.3655 0002006 87.0044 273.1190 15.39672595 26697
Epoch: Dec 8, 2025 • Age: 9 hours

当前状态

高度 449.8 km
速度 7.64 km/s
星下点 -9.56°S, 117.92°E
发射日期 Jun 25, 2025
运行时间 0.4 years
类型 internet

技术详情

分类 Payload
质量 575.00 kg
干质量 530.00 kg
总质量 575.00 kg
长度 0.30 m
直径 4.10 m
跨度 29.00 m
形状 Box + pan
制造商 SPXS
平台类型 Starlink V2MO
阶段状态 In Orbit
所有者/国家 SPXS/US

大型星座

Loading constellations...